Location: Lake Sonoma
(38.7200°N, 123.0564°W)
Time: 04:15:51
(UTC-07:00)

ISS - All Passes

Search period start: 26 March 2017 00:00
Search period end: 05 April 2017 00:00
Orbit: 399 x 409 km, 51.6° (Epoch: 26 March)

Date Brightness Start Highest point End Pass type
(mag) Time Alt. Az. Time Alt. Az. Time Alt. Az.
26 Mar - 03:07:01 10° NNW 03:09:41 22° NNE 03:12:21 10° E night (unlit)
26 Mar - 04:43:07 10° WNW 04:46:19 48° SW 04:49:30 10° SSE night (unlit)
26 Mar - 21:21:40 10° SW 21:24:55 76° NW 21:28:11 10° NE visible
26 Mar - 22:59:52 10° WNW 23:01:51 15° NNW 23:03:50 10° NNE night (unlit)
27 Mar - 02:15:01 10° NNW 02:17:06 15° NNE 02:19:10 10° ENE night (unlit)
27 Mar - 03:50:42 10° NW 03:54:00 82° NE 03:57:18 10° SE night (unlit)
27 Mar - 20:29:26 10° SW 20:32:35 51° SE 20:35:46 10° ENE visible
27 Mar - 22:06:40 10° WNW 22:09:14 21° NNW 22:11:49 10° NNE visible
28 Mar - 01:23:07 10° N 01:24:25 12° NNE 01:25:44 10° NE night (unlit)
28 Mar - 02:58:25 10° NW 03:01:35 42° NNE 03:04:44 10° ESE night (unlit)
28 Mar - 04:35:27 10° W 04:37:51 19° SW 04:40:14 10° S night (unlit)
28 Mar - 19:37:37 10° S 19:40:20 25° SE 19:43:03 10° ENE daylight
28 Mar - 21:13:43 10° W 21:16:42 32° NNW 21:19:42 10° NE visible
28 Mar - 22:53:10 10° NNW 22:53:58 11° NNW 22:54:46 10° N visible
29 Mar - 02:06:16 10° NNW 02:09:04 25° NNE 02:11:53 10° E night (unlit)
29 Mar - 03:42:32 10° WNW 03:45:37 37° SW 03:48:40 10° SSE night (unlit)
29 Mar - 18:46:40 10° SSE 18:48:08 13° SE 18:49:37 10° E daylight
29 Mar - 20:21:01 10° WSW 20:24:13 60° NW 20:27:28 10° NE visible
29 Mar - 21:59:31 10° NW 22:01:14 13° NNW 22:02:58 10° NNE visible
30 Mar - 01:14:11 10° NNW 01:16:28 17° NNE 01:18:46 10° ENE night (unlit)
30 Mar - 02:49:59 10° NW 02:53:17 79° SW 02:56:34 10° SE night (unlit)
30 Mar - 19:28:37 10° SW 19:31:49 66° SE 19:35:04 10° NE daylight
30 Mar - 21:06:11 10° WNW 21:08:35 18° NNW 21:10:58 10° NNE visible
31 Mar - 00:22:12 10° NNW 00:23:47 13° NNE 00:25:22 10° NE night (unlit)
31 Mar - 01:57:38 10° NW 02:00:51 52° NE 02:04:04 10° ESE night (unlit)
31 Mar - 03:35:03 10° W 03:37:01 15° SW 03:38:59 10° SSW night (unlit)
31 Mar - 18:36:36 10° SSW 18:39:30 31° SE 18:42:26 10° ENE daylight
31 Mar - 20:13:06 10° W 20:15:57 28° NNW 20:18:50 10° NNE visible
31 Mar - 23:30:33 10° N 23:31:02 10° N 23:31:31 10° NNE night (unlit)
01 Apr - 01:05:24 10° NNW 01:08:21 29° NNE 01:11:17 10° E night (unlit)
01 Apr - 02:41:52 10° WNW 02:44:46 29° SW 02:47:40 10° SSE night (unlit)
01 Apr - 17:45:12 10° S 17:47:15 16° SE 17:49:18 10° E daylight
01 Apr - 19:20:17 10° WSW 19:23:26 48° NW 19:26:36 10° NE daylight
01 Apr - 20:59:05 10° NW 21:00:31 12° NNW 21:01:58 10° N visible
02 Apr - 00:13:16 10° NNW 00:15:44 19° NNE 00:18:12 10° ENE night (unlit)
02 Apr - 01:49:11 10° WNW 01:52:27 61° SW 01:55:41 10° SE night (unlit)
02 Apr - 18:27:44 10° SW 18:30:58 85° SE 18:34:13 10° NE daylight
02 Apr - 20:05:38 10° WNW 20:07:48 16° NNW 20:09:59 10° NNE visible
02 Apr - 23:21:12 10° NNW 23:23:02 14° NNE 23:24:51 10° NE visible
03 Apr - 00:56:45 10° NW 01:00:00 65° NE 01:03:16 10° ESE night (unlit)
03 Apr - 02:34:47 10° WSW 02:36:04 12° SW 02:37:21 10° SSW night (unlit)
03 Apr - 17:35:32 10° SSW 17:38:34 39° SE 17:41:39 10° ENE daylight
03 Apr - 19:12:25 10° W 19:15:08 24° NNW 19:17:51 10° NNE daylight
03 Apr - 22:29:19 10° N 22:30:15 11° NNE 22:31:10 10° NNE visible
04 Apr - 00:04:26 10° NW 00:07:29 35° NNE 00:10:32 10° E night (unlit)
04 Apr - 01:41:09 10° WNW 01:43:49 23° SW 01:46:29 10° S night (unlit)
04 Apr - 16:43:50 10° S 16:46:16 20° SE 16:48:42 10° E daylight
04 Apr - 18:19:27 10° WSW 18:22:32 39° NNW 18:25:37 10° NE daylight
04 Apr - 19:58:35 10° NW 19:59:43 11° NNW 20:00:50 10° N daylight
04 Apr - 23:12:13 10° NNW 23:14:51 22° NNE 23:17:29 10° E visible
